owner,sensor,date,latitude,longitude,vertical_datum,sea_water_practical_salinity,qcFlag 
NERRS,ioos:station:NOAA.NERRS:marmbwq:1,2015-08-01T00:00:00Z,28.1384,-96.8285,0.0,20.6,1111122 
NERRS,ioos:station:NOAA.NERRS:marmbwq:1,2015-08-01T00:30:00Z,28.1384,-96.8285,0.0,20.6,1111122 
NERRS,ioos:station:NOAA.NERRS:marmbwq:1,2015-08-01T01:30:00Z,28.1384,-96.8285,0.0,20.0,1111122 
NERRS,ioos:station:NOAA.NERRS:marmbwq:1,2015-08-01T02:30:00Z,28.1384,-96.8285,0.0,20.3,1111122 
NERRS,ioos:station:NOAA.NERRS:marmbwq:1,2015-08-01T03:30:00Z,28.1384,-96.8285,0.0,20.5,1111122 
NERRS,ioos:station:NOAA.NERRS:marmbwq:1,2015-08-01T11:00:00Z,28.1384,-96.8285,0.0,20.6,1111122 
NERRS,ioos:station:NOAA.NERRS:marmbwq:1,2015-08-01T11:30:00Z,28.1384,-96.8285,0.0,19.3,1111122 
NERRS,ioos:station:NOAA.NERRS:marmbwq:1,2015-08-01T13:30:00Z,28.1384,-96.8285,0.0,19.2,1111122 
NERRS,ioos:station:NOAA.NERRS:marmbwq:1,2015-08-01T14:30:00Z,28.1384,-96.8285,0.0,19.6,1111122 
NERRS,ioos:station:NOAA.NERRS:marmbwq:1,2015-08-01T15:30:00Z,28.1384,-96.8285,0.0,20.5,1111122 
NERRS,ioos:station:NOAA.NERRS:marmbwq:1,2015-08-01T17:30:00Z,28.1384,-96.8285,0.0,20.0,1111122 
NERRS,ioos:station:NOAA.NERRS:marmbwq:1,2015-08-01T18:30:00Z,28.1384,-96.8285,0.0,19.5,1111122 
NERRS,ioos:station:NOAA.NERRS:marmbwq:1,2015-08-01T19:30:00Z,28.1384,-96.8285,0.0,19.2,1111122 
NERRS,ioos:station:NOAA.NERRS:marmbwq:1,2015-08-01T20:30:00Z,28.1384,-96.8285,0.0,19.0,1111122 
NERRS,ioos:station:NOAA.NERRS:marmbwq:1,2015-08-01T21:30:00Z,28.1384,-96.8285,0.0,19.1,1111122 
NERRS,ioos:station:NOAA.NERRS:marmbwq:1,2015-08-01T22:30:00Z,28.1384,-96.8285,0.0,19.1,1111122 
NERRS,ioos:station:NOAA.NERRS:marmbwq:1,2015-08-01T23:30:00Z,28.1384,-96.8285,0.0,19.2,1111122 
NERRS,ioos:station:NOAA.NERRS:marmbwq:1,2015-08-02T00:30:00Z,28.1384,-96.8285,0.0,19.2,1111122 
NERRS,ioos:station:NOAA.NERRS:marmbwq:1,2015-08-02T01:30:00Z,28.1384,-96.8285,0.0,19.2,1111122 
NERRS,ioos:station:NOAA.NERRS:marmbwq:1,2015-08-02T02:30:00Z,28.1384,-96.8285,0.0,19.2,1111122 
NERRS,ioos:station:NOAA.NERRS:marmbwq:1,2015-08-02T03:30:00Z,28.1384,-96.8285,0.0,19.2,1111122 
NERRS,ioos:station:NOAA.NERRS:marmbwq:1,2015-08-02T04:30:00Z,28.1384,-96.8285,0.0,19.2,1111122 
NERRS,ioos:station:NOAA.NERRS:marmbwq:1,2015-08-02T05:30:00Z,28.1384,-96.8285,0.0,19.2,1111122 
NERRS,ioos:station:NOAA.NERRS:marmbwq:1,2015-08-02T08:00:00Z,28.1384,-96.8285,0.0,19.1,1111122 
NERRS,ioos:station:NOAA.NERRS:marmbwq:1,2015-08-02T08:30:00Z,28.1384,-96.8285,0.0,19.1,1111122 
NERRS,ioos:station:NOAA.NERRS:marmbwq:1,2015-08-02T09:30:00Z,28.1384,-96.8285,0.0,19.1,1111122 
NERRS,ioos:station:NOAA.NERRS:marmbwq:1,2015-08-02T10:30:00Z,28.1384,-96.8285,0.0,19.2,1111122 
NERRS,ioos:station:NOAA.NERRS:marmbwq:1,2015-08-02T11:30:00Z,28.1384,-96.8285,0.0,19.3,1111122 
NERRS,ioos:station:NOAA.NERRS:marmbwq:1,2015-08-02T12:30:00Z,28.1384,-96.8285,0.0,19.4,1111122 
NERRS,ioos:station:NOAA.NERRS:marmbwq:1,2015-08-03T04:30:00Z,28.1384,-96.8285,0.0,19.6,1111122 
NERRS,ioos:station:NOAA.NERRS:marmbwq:1,2015-08-03T05:30:00Z,28.1384,-96.8285,0.0,19.7,1111122 
NERRS,ioos:station:NOAA.NERRS:marmbwq:1,2015-08-04T04:30:00Z,28.1384,-96.8285,0.0,21.1,1111122 
NERRS,ioos:station:NOAA.NERRS:marmbwq:1,2015-08-04T05:30:00Z,28.1384,-96.8285,0.0,21.1,1111122 
NERRS,ioos:station:NOAA.NERRS:marmbwq:1,2015-08-04T06:30:00Z,28.1384,-96.8285,0.0,21.1,1111122 
NERRS,ioos:station:NOAA.NERRS:marmbwq:1,2015-08-04T08:00:00Z,28.1384,-96.8285,0.0,21.1,1111122 
NERRS,ioos:station:NOAA.NERRS:marmbwq:1,2015-08-04T08:30:00Z,28.1384,-96.8285,0.0,21.2,1111122 
NERRS,ioos:station:NOAA.NERRS:marmbwq:1,2015-08-04T09:30:00Z,28.1384,-96.8285,0.0,21.1,1111122 
NERRS,ioos:station:NOAA.NERRS:marmbwq:1,2015-08-04T10:30:00Z,28.1384,-96.8285,0.0,21.0,1111122 
NERRS,ioos:station:NOAA.NERRS:marmbwq:1,2015-08-04T11:30:00Z,28.1384,-96.8285,0.0,21.2,1111122 
NERRS,ioos:station:NOAA.NERRS:marmbwq:1,2015-08-04T12:30:00Z,28.1384,-96.8285,0.0,21.0,1111122 
NERRS,ioos:station:NOAA.NERRS:marmbwq:1,2015-08-04T13:30:00Z,28.1384,-96.8285,0.0,20.4,1111122 
NERRS,ioos:station:NOAA.NERRS:marmbwq:1,2015-08-04T14:30:00Z,28.1384,-96.8285,0.0,20.8,1111122 
NERRS,ioos:station:NOAA.NERRS:marmbwq:1,2015-08-04T15:30:00Z,28.1384,-96.8285,0.0,21.3,1111122 
NERRS,ioos:station:NOAA.NERRS:marmbwq:1,2015-08-04T20:30:00Z,28.1384,-96.8285,0.0,21.9,1111122 
NERRS,ioos:station:NOAA.NERRS:marmbwq:1,2015-08-04T21:30:00Z,28.1384,-96.8285,0.0,22.0,1111122 
NERRS,ioos:station:NOAA.NERRS:marmbwq:1,2015-08-04T23:30:00Z,28.1384,-96.8285,0.0,22.2,1111122 
NERRS,ioos:station:NOAA.NERRS:marmbwq:1,2015-08-05T00:30:00Z,28.1384,-96.8285,0.0,22.4,1111122 
NERRS,ioos:station:NOAA.NERRS:marmbwq:1,2015-08-05T01:30:00Z,28.1384,-96.8285,0.0,22.5,1111122 
NERRS,ioos:station:NOAA.NERRS:marmbwq:1,2015-08-05T02:30:00Z,28.1384,-96.8285,0.0,22.5,1111122 
NERRS,ioos:station:NOAA.NERRS:marmbwq:1,2015-08-05T03:30:00Z,28.1384,-96.8285,0.0,22.6,1111122 
NERRS,ioos:station:NOAA.NERRS:marmbwq:1,2015-08-05T04:30:00Z,28.1384,-96.8285,0.0,22.7,1111122 
NERRS,ioos:station:NOAA.NERRS:marmbwq:1,2015-08-05T05:30:00Z,28.1384,-96.8285,0.0,22.6,1111122 
NERRS,ioos:station:NOAA.NERRS:marmbwq:1,2015-08-05T06:30:00Z,28.1384,-96.8285,0.0,22.7,1111122 
NERRS,ioos:station:NOAA.NERRS:marmbwq:1,2015-08-05T07:30:00Z,28.1384,-96.8285,0.0,22.7,1111122 
NERRS,ioos:station:NOAA.NERRS:marmbwq:1,2015-08-05T08:30:00Z,28.1384,-96.8285,0.0,22.6,1111122 
NERRS,ioos:station:NOAA.NERRS:marmbwq:1,2015-08-05T09:30:00Z,28.1384,-96.8285,0.0,22.4,1111122 
NERRS,ioos:station:NOAA.NERRS:marmbwq:1,2015-08-05T11:30:00Z,28.1384,-96.8285,0.0,22.3,1111122 
NERRS,ioos:station:NOAA.NERRS:marmbwq:1,2015-08-05T13:00:00Z,28.1384,-96.8285,0.0,22.0,1111122 
NERRS,ioos:station:NOAA.NERRS:marmbwq:1,2015-08-05T13:30:00Z,28.1384,-96.8285,0.0,22.0,1111122 
NERRS,ioos:station:NOAA.NERRS:marmbwq:1,2015-08-05T14:30:00Z,28.1384,-96.8285,0.0,22.0,1111122 
NERRS,ioos:station:NOAA.NERRS:marmbwq:1,2015-08-05T16:00:00Z,28.1384,-96.8285,0.0,22.0,1111122 
NERRS,ioos:station:NOAA.NERRS:marmbwq:1,2015-08-05T16:30:00Z,28.1384,-96.8285,0.0,22.0,1111122 
NERRS,ioos:station:NOAA.NERRS:marmbwq:1,2015-08-05T18:30:00Z,28.1384,-96.8285,0.0,21.9,1111122 
NERRS,ioos:station:NOAA.NERRS:marmbwq:1,2015-08-05T19:30:00Z,28.1384,-96.8285,0.0,21.8,1111122 
NERRS,ioos:station:NOAA.NERRS:marmbwq:1,2015-08-05T20:30:00Z,28.1384,-96.8285,0.0,21.8,1111122 
NERRS,ioos:station:NOAA.NERRS:marmbwq:1,2015-08-05T21:30:00Z,28.1384,-96.8285,0.0,21.9,1111122 
NERRS,ioos:station:NOAA.NERRS:marmbwq:1,2015-08-05T23:30:00Z,28.1384,-96.8285,0.0,22.2,1111122 
NERRS,ioos:station:NOAA.NERRS:marmbwq:1,2015-08-06T00:30:00Z,28.1384,-96.8285,0.0,22.3,1111122 
NERRS,ioos:station:NOAA.NERRS:marmbwq:1,2015-08-06T01:30:00Z,28.1384,-96.8285,0.0,22.3,1111122 
NERRS,ioos:station:NOAA.NERRS:marmbwq:1,2015-08-06T02:30:00Z,28.1384,-96.8285,0.0,22.3,1111122 
NERRS,ioos:station:NOAA.NERRS:marmbwq:1,2015-08-06T03:30:00Z,28.1384,-96.8285,0.0,22.2,1111122 
NERRS,ioos:station:NOAA.NERRS:marmbwq:1,2015-08-06T04:30:00Z,28.1384,-96.8285,0.0,22.1,1111122 
NERRS,ioos:station:NOAA.NERRS:marmbwq:1,2015-08-06T05:30:00Z,28.1384,-96.8285,0.0,22.0,1111122 
NERRS,ioos:station:NOAA.NERRS:marmbwq:1,2015-08-06T06:30:00Z,28.1384,-96.8285,0.0,21.9,1111122 
NERRS,ioos:station:NOAA.NERRS:marmbwq:1,2015-08-06T08:30:00Z,28.1384,-96.8285,0.0,21.7,1111122 
NERRS,ioos:station:NOAA.NERRS:marmbwq:1,2015-08-06T09:30:00Z,28.1384,-96.8285,0.0,21.6,1111122 
NERRS,ioos:station:NOAA.NERRS:marmbwq:1,2015-08-06T11:00:00Z,28.1384,-96.8285,0.0,21.6,1111122 
NERRS,ioos:station:NOAA.NERRS:marmbwq:1,2015-08-06T12:30:00Z,28.1384,-96.8285,0.0,21.6,1111122 
NERRS,ioos:station:NOAA.NERRS:marmbwq:1,2015-08-06T13:30:00Z,28.1384,-96.8285,0.0,21.7,1111122 
NERRS,ioos:station:NOAA.NERRS:marmbwq:1,2015-08-06T14:30:00Z,28.1384,-96.8285,0.0,21.8,1111122 
NERRS,ioos:station:NOAA.NERRS:marmbwq:1,2015-08-06T15:30:00Z,28.1384,-96.8285,0.0,21.7,1111122 
NERRS,ioos:station:NOAA.NERRS:marmbwq:1,2015-08-06T16:30:00Z,28.1384,-96.8285,0.0,21.8,1111122 
NERRS,ioos:station:NOAA.NERRS:marmbwq:1,2015-08-06T17:30:00Z,28.1384,-96.8285,0.0,23.7,1111122 
NERRS,ioos:station:NOAA.NERRS:marmbwq:1,2015-08-06T18:30:00Z,28.1384,-96.8285,0.0,23.4,1111122 
NERRS,ioos:station:NOAA.NERRS:marmbwq:1,2015-08-06T20:00:00Z,28.1384,-96.8285,0.0,23.0,1111122 
NERRS,ioos:station:NOAA.NERRS:marmbwq:1,2015-08-06T21:00:00Z,28.1384,-96.8285,0.0,23.1,1111122 
NERRS,ioos:station:NOAA.NERRS:marmbwq:1,2015-08-06T23:00:00Z,28.1384,-96.8285,0.0,23.0,1111122 
NERRS,ioos:station:NOAA.NERRS:marmbwq:1,2015-08-06T23:30:00Z,28.1384,-96.8285,0.0,23.1,1111122 
NERRS,ioos:station:NOAA.NERRS:marmbwq:1,2015-08-07T00:30:00Z,28.1384,-96.8285,0.0,23.3,1111122 
NERRS,ioos:station:NOAA.NERRS:marmbwq:1,2015-08-07T06:30:00Z,28.1384,-96.8285,0.0,23.4,1111122 
NERRS,ioos:station:NOAA.NERRS:marmbwq:1,2015-08-07T08:00:00Z,28.1384,-96.8285,0.0,23.1,1111122 
NERRS,ioos:station:NOAA.NERRS:marmbwq:1,2015-08-07T08:30:00Z,28.1384,-96.8285,0.0,23.0,1111122 
NERRS,ioos:station:NOAA.NERRS:marmbwq:1,2015-08-07T11:00:00Z,28.1384,-96.8285,0.0,22.4,1111122 
NERRS,ioos:station:NOAA.NERRS:marmbwq:1,2015-08-07T11:30:00Z,28.1384,-96.8285,0.0,22.5,1111122 
NERRS,ioos:station:NOAA.NERRS:marmbwq:1,2015-08-07T12:30:00Z,28.1384,-96.8285,0.0,23.0,1111122 
NERRS,ioos:station:NOAA.NERRS:marmbwq:1,2015-08-07T13:30:00Z,28.1384,-96.8285,0.0,24.1,1111122 
NERRS,ioos:station:NOAA.NERRS:marmbwq:1,2015-08-07T14:30:00Z,28.1384,-96.8285,0.0,24.5,1111122 
NERRS,ioos:station:NOAA.NERRS:marmbwq:1,2015-08-07T15:30:00Z,28.1384,-96.8285,0.0,24.5,1111122 
NERRS,ioos:station:NOAA.NERRS:marmbwq:1,2015-08-07T16:30:00Z,28.1384,-96.8285,0.0,24.1,1111122 
NERRS,ioos:station:NOAA.NERRS:marmbwq:1,2015-08-07T18:30:00Z,28.1384,-96.8285,0.0,23.9,1111122 
NERRS,ioos:station:NOAA.NERRS:marmbwq:1,2015-08-07T19:30:00Z,28.1384,-96.8285,0.0,23.7,1111122 
NERRS,ioos:station:NOAA.NERRS:marmbwq:1,2015-08-07T20:30:00Z,28.1384,-96.8285,0.0,23.5,1111122 
NERRS,ioos:station:NOAA.NERRS:marmbwq:1,2015-08-07T21:30:00Z,28.1384,-96.8285,0.0,24.1,1111122 
NERRS,ioos:station:NOAA.NERRS:marmbwq:1,2015-08-07T22:30:00Z,28.1384,-96.8285,0.0,25.7,1111122 
NERRS,ioos:station:NOAA.NERRS:marmbwq:1,2015-08-07T23:30:00Z,28.1384,-96.8285,0.0,25.7,1111122 
NERRS,ioos:station:NOAA.NERRS:marmbwq:1,2015-08-08T00:30:00Z,28.1384,-96.8285,0.0,25.8,1111122 
NERRS,ioos:station:NOAA.NERRS:marmbwq:1,2015-08-08T01:30:00Z,28.1384,-96.8285,0.0,24.8,1111122 
NERRS,ioos:station:NOAA.NERRS:marmbwq:1,2015-08-08T02:30:00Z,28.1384,-96.8285,0.0,25.8,1111122 
NERRS,ioos:station:NOAA.NERRS:marmbwq:1,2015-08-08T03:30:00Z,28.1384,-96.8285,0.0,26.1,1111122 
NERRS,ioos:station:NOAA.NERRS:marmbwq:1,2015-08-08T04:30:00Z,28.1384,-96.8285,0.0,26.3,1111122 
NERRS,ioos:station:NOAA.NERRS:marmbwq:1,2015-08-08T06:00:00Z,28.1384,-96.8285,0.0,25.4,1111122 
NERRS,ioos:station:NOAA.NERRS:marmbwq:1,2015-08-08T06:30:00Z,28.1384,-96.8285,0.0,25.1,1111122 
NERRS,ioos:station:NOAA.NERRS:marmbwq:1,2015-08-08T07:30:00Z,28.1384,-96.8285,0.0,24.7,1111122 
NERRS,ioos:station:NOAA.NERRS:marmbwq:1,2015-08-08T08:30:00Z,28.1384,-96.8285,0.0,25.1,1111122 
NERRS,ioos:station:NOAA.NERRS:marmbwq:1,2015-08-08T09:30:00Z,28.1384,-96.8285,0.0,25.0,1111122 
NERRS,ioos:station:NOAA.NERRS:marmbwq:1,2015-08-08T10:30:00Z,28.1384,-96.8285,0.0,24.9,1111122 
NERRS,ioos:station:NOAA.NERRS:marmbwq:1,2015-08-08T11:30:00Z,28.1384,-96.8285,0.0,24.4,1111122 
NERRS,ioos:station:NOAA.NERRS:marmbwq:1,2015-08-08T12:30:00Z,28.1384,-96.8285,0.0,24.4,1111122 
NERRS,ioos:station:NOAA.NERRS:marmbwq:1,2015-08-08T13:30:00Z,28.1384,-96.8285,0.0,24.4,1111122 
NERRS,ioos:station:NOAA.NERRS:marmbwq:1,2015-08-08T14:30:00Z,28.1384,-96.8285,0.0,24.5,1111122 
NERRS,ioos:station:NOAA.NERRS:marmbwq:1,2015-08-08T15:30:00Z,28.1384,-96.8285,0.0,24.6,1111122 
NERRS,ioos:station:NOAA.NERRS:marmbwq:1,2015-08-08T16:30:00Z,28.1384,-96.8285,0.0,24.6,1111122 
NERRS,ioos:station:NOAA.NERRS:marmbwq:1,2015-08-08T17:30:00Z,28.1384,-96.8285,0.0,24.4,1111122 
NERRS,ioos:station:NOAA.NERRS:marmbwq:1,2015-08-08T18:30:00Z,28.1384,-96.8285,0.0,24.3,1111122 
NERRS,ioos:station:NOAA.NERRS:marmbwq:1,2015-08-08T19:30:00Z,28.1384,-96.8285,0.0,24.2,1111122 
NERRS,ioos:station:NOAA.NERRS:marmbwq:1,2015-08-08T20:30:00Z,28.1384,-96.8285,0.0,24.2,1111122 
NERRS,ioos:station:NOAA.NERRS:marmbwq:1,2015-08-08T21:30:00Z,28.1384,-96.8285,0.0,24.1,1111122 
NERRS,ioos:station:NOAA.NERRS:marmbwq:1,2015-08-08T22:30:00Z,28.1384,-96.8285,0.0,24.0,1111122 
NERRS,ioos:station:NOAA.NERRS:marmbwq:1,2015-08-08T23:30:00Z,28.1384,-96.8285,0.0,24.0,1111122 
NERRS,ioos:station:NOAA.NERRS:marmbwq:1,2015-08-09T00:30:00Z,28.1384,-96.8285,0.0,23.9,1111122 
NERRS,ioos:station:NOAA.NERRS:marmbwq:1,2015-08-09T01:30:00Z,28.1384,-96.8285,0.0,23.9,1111122 
NERRS,ioos:station:NOAA.NERRS:marmbwq:1,2015-08-09T04:30:00Z,28.1384,-96.8285,0.0,23.9,1111122 
NERRS,ioos:station:NOAA.NERRS:marmbwq:1,2015-08-09T05:30:00Z,28.1384,-96.8285,0.0,23.8,1111122 
NERRS,ioos:station:NOAA.NERRS:marmbwq:1,2015-08-09T06:30:00Z,28.1384,-96.8285,0.0,23.8,1111122 
NERRS,ioos:station:NOAA.NERRS:marmbwq:1,2015-08-09T07:30:00Z,28.1384,-96.8285,0.0,23.8,1111122 
NERRS,ioos:station:NOAA.NERRS:marmbwq:1,2015-08-09T08:30:00Z,28.1384,-96.8285,0.0,24.0,1111122 
NERRS,ioos:station:NOAA.NERRS:marmbwq:1,2015-08-09T09:30:00Z,28.1384,-96.8285,0.0,23.8,1111122 
NERRS,ioos:station:NOAA.NERRS:marmbwq:1,2015-08-09T10:30:00Z,28.1384,-96.8285,0.0,24.0,1111122 
NERRS,ioos:station:NOAA.NERRS:marmbwq:1,2015-08-09T11:30:00Z,28.1384,-96.8285,0.0,24.3,1111122 
NERRS,ioos:station:NOAA.NERRS:marmbwq:1,2015-08-09T12:30:00Z,28.1384,-96.8285,0.0,24.4,1111122 
NERRS,ioos:station:NOAA.NERRS:marmbwq:1,2015-08-09T13:30:00Z,28.1384,-96.8285,0.0,24.3,1111122 
NERRS,ioos:station:NOAA.NERRS:marmbwq:1,2015-08-09T14:30:00Z,28.1384,-96.8285,0.0,24.4,1111122 
NERRS,ioos:station:NOAA.NERRS:marmbwq:1,2015-08-09T15:30:00Z,28.1384,-96.8285,0.0,24.5,1111122 
NERRS,ioos:station:NOAA.NERRS:marmbwq:1,2015-08-09T16:30:00Z,28.1384,-96.8285,0.0,24.5,1111122 
NERRS,ioos:station:NOAA.NERRS:marmbwq:1,2015-08-09T17:30:00Z,28.1384,-96.8285,0.0,24.6,1111122 
NERRS,ioos:station:NOAA.NERRS:marmbwq:1,2015-08-09T18:30:00Z,28.1384,-96.8285,0.0,24.8,1111122 
NERRS,ioos:station:NOAA.NERRS:marmbwq:1,2015-08-09T19:30:00Z,28.1384,-96.8285,0.0,25.0,1111122 
NERRS,ioos:station:NOAA.NERRS:marmbwq:1,2015-08-09T20:30:00Z,28.1384,-96.8285,0.0,25.3,1111122 
NERRS,ioos:station:NOAA.NERRS:marmbwq:1,2015-08-09T21:30:00Z,28.1384,-96.8285,0.0,25.6,1111122 
NERRS,ioos:station:NOAA.NERRS:marmbwq:1,2015-08-09T22:30:00Z,28.1384,-96.8285,0.0,25.8,1111122 
NERRS,ioos:station:NOAA.NERRS:marmbwq:1,2015-08-09T23:30:00Z,28.1384,-96.8285,0.0,25.7,1111122 
NERRS,ioos:station:NOAA.NERRS:marmbwq:1,2015-08-10T00:30:00Z,28.1384,-96.8285,0.0,25.7,1111122 
NERRS,ioos:station:NOAA.NERRS:marmbwq:1,2015-08-10T01:30:00Z,28.1384,-96.8285,0.0,25.7,1111122 
NERRS,ioos:station:NOAA.NERRS:marmbwq:1,2015-08-10T02:30:00Z,28.1384,-96.8285,0.0,25.9,1111122 
NERRS,ioos:station:NOAA.NERRS:marmbwq:1,2015-08-10T03:30:00Z,28.1384,-96.8285,0.0,25.8,1111122 
NERRS,ioos:station:NOAA.NERRS:marmbwq:1,2015-08-10T04:30:00Z,28.1384,-96.8285,0.0,25.9,1111122 
NERRS,ioos:station:NOAA.NERRS:marmbwq:1,2015-08-10T05:30:00Z,28.1384,-96.8285,0.0,26.0,1111122 
NERRS,ioos:station:NOAA.NERRS:marmbwq:1,2015-08-10T06:30:00Z,28.1384,-96.8285,0.0,26.1,1111122 
NERRS,ioos:station:NOAA.NERRS:marmbwq:1,2015-08-10T07:30:00Z,28.1384,-96.8285,0.0,26.2,1111122 
NERRS,ioos:station:NOAA.NERRS:marmbwq:1,2015-08-10T08:30:00Z,28.1384,-96.8285,0.0,26.3,1111122 
NERRS,ioos:station:NOAA.NERRS:marmbwq:1,2015-08-10T09:30:00Z,28.1384,-96.8285,0.0,26.3,1111122 
NERRS,ioos:station:NOAA.NERRS:marmbwq:1,2015-08-10T10:30:00Z,28.1384,-96.8285,0.0,26.3,1111122 
NERRS,ioos:station:NOAA.NERRS:marmbwq:1,2015-08-10T11:30:00Z,28.1384,-96.8285,0.0,26.2,1111122 
NERRS,ioos:station:NOAA.NERRS:marmbwq:1,2015-08-10T12:30:00Z,28.1384,-96.8285,0.0,26.2,1111122 
NERRS,ioos:station:NOAA.NERRS:marmbwq:1,2015-08-10T13:30:00Z,28.1384,-96.8285,0.0,26.2,1111122 
NERRS,ioos:station:NOAA.NERRS:marmbwq:1,2015-08-10T14:30:00Z,28.1384,-96.8285,0.0,26.2,1111122 
NERRS,ioos:station:NOAA.NERRS:marmbwq:1,2015-08-10T15:30:00Z,28.1384,-96.8285,0.0,26.2,1111122 
NERRS,ioos:station:NOAA.NERRS:marmbwq:1,2015-08-10T16:30:00Z,28.1384,-96.8285,0.0,26.2,1111122 
NERRS,ioos:station:NOAA.NERRS:marmbwq:1,2015-08-10T17:30:00Z,28.1384,-96.8285,0.0,26.2,1111122 
NERRS,ioos:station:NOAA.NERRS:marmbwq:1,2015-08-10T18:30:00Z,28.1384,-96.8285,0.0,26.2,1111122 
NERRS,ioos:station:NOAA.NERRS:marmbwq:1,2015-08-10T19:30:00Z,28.1384,-96.8285,0.0,26.3,1111122 
NERRS,ioos:station:NOAA.NERRS:marmbwq:1,2015-08-10T20:30:00Z,28.1384,-96.8285,0.0,26.4,1111122 
NERRS,ioos:station:NOAA.NERRS:marmbwq:1,2015-08-10T21:30:00Z,28.1384,-96.8285,0.0,26.4,1111122 
NERRS,ioos:station:NOAA.NERRS:marmbwq:1,2015-08-10T23:00:00Z,28.1384,-96.8285,0.0,26.5,1111122 
NERRS,ioos:station:NOAA.NERRS:marmbwq:1,2015-08-10T23:30:00Z,28.1384,-96.8285,0.0,26.5,1111122 
NERRS,ioos:station:NOAA.NERRS:marmbwq:1,2015-08-11T00:30:00Z,28.1384,-96.8285,0.0,26.6,1111122 
NERRS,ioos:station:NOAA.NERRS:marmbwq:1,2015-08-11T08:30:00Z,28.1384,-96.8285,0.0,26.8,1111122 
NERRS,ioos:station:NOAA.NERRS:marmbwq:1,2015-08-11T09:30:00Z,28.1384,-96.8285,0.0,26.8,1111122 
NERRS,ioos:station:NOAA.NERRS:marmbwq:1,2015-08-11T10:30:00Z,28.1384,-96.8285,0.0,26.9,1111122 
NERRS,ioos:station:NOAA.NERRS:marmbwq:1,2015-08-11T11:30:00Z,28.1384,-96.8285,0.0,26.9,1111122 
NERRS,ioos:station:NOAA.NERRS:marmbwq:1,2015-08-11T12:30:00Z,28.1384,-96.8285,0.0,26.9,1111122 
NERRS,ioos:station:NOAA.NERRS:marmbwq:1,2015-08-11T13:30:00Z,28.1384,-96.8285,0.0,26.9,1111122 
NERRS,ioos:station:NOAA.NERRS:marmbwq:1,2015-08-11T14:30:00Z,28.1384,-96.8285,0.0,26.9,1111122 
NERRS,ioos:station:NOAA.NERRS:marmbwq:1,2015-08-11T15:30:00Z,28.1384,-96.8285,0.0,26.9,1111122 
NERRS,ioos:station:NOAA.NERRS:marmbwq:1,2015-08-11T17:00:00Z,28.1384,-96.8285,0.0,27.0,1111122 
NERRS,ioos:station:NOAA.NERRS:marmbwq:1,2015-08-11T17:30:00Z,28.1384,-96.8285,0.0,27.0,1111122 
NERRS,ioos:station:NOAA.NERRS:marmbwq:1,2015-08-11T18:30:00Z,28.1384,-96.8285,0.0,27.0,1111122 
NERRS,ioos:station:NOAA.NERRS:marmbwq:1,2015-08-11T19:30:00Z,28.1384,-96.8285,0.0,27.0,1111122 
NERRS,ioos:station:NOAA.NERRS:marmbwq:1,2015-08-11T20:30:00Z,28.1384,-96.8285,0.0,27.0,1111122 
NERRS,ioos:station:NOAA.NERRS:marmbwq:1,2015-08-11T21:30:00Z,28.1384,-96.8285,0.0,27.1,1111122 
NERRS,ioos:station:NOAA.NERRS:marmbwq:1,2015-08-11T22:30:00Z,28.1384,-96.8285,0.0,27.1,1111122 
NERRS,ioos:station:NOAA.NERRS:marmbwq:1,2015-08-11T23:30:00Z,28.1384,-96.8285,0.0,27.1,1111122 
NERRS,ioos:station:NOAA.NERRS:marmbwq:1,2015-08-12T00:30:00Z,28.1384,-96.8285,0.0,27.1,1111122 
NERRS,ioos:station:NOAA.NERRS:marmbwq:1,2015-08-12T09:30:00Z,28.1384,-96.8285,0.0,27.1,1111122 
NERRS,ioos:station:NOAA.NERRS:marmbwq:1,2015-08-12T10:30:00Z,28.1384,-96.8285,0.0,27.1,1111122 
NERRS,ioos:station:NOAA.NERRS:marmbwq:1,2015-08-12T11:30:00Z,28.1384,-96.8285,0.0,27.2,1111122 
NERRS,ioos:station:NOAA.NERRS:marmbwq:1,2015-08-12T12:30:00Z,28.1384,-96.8285,0.0,27.2,1111122 
NERRS,ioos:station:NOAA.NERRS:marmbwq:1,2015-08-12T13:30:00Z,28.1384,-96.8285,0.0,27.2,1111122 
NERRS,ioos:station:NOAA.NERRS:marmbwq:1,2015-08-12T15:30:00Z,28.1384,-96.8285,0.0,27.2,1111122 
NERRS,ioos:station:NOAA.NERRS:marmbwq:1,2015-08-12T16:30:00Z,28.1384,-96.8285,0.0,27.2,1111122 
NERRS,ioos:station:NOAA.NERRS:marmbwq:1,2015-08-12T17:30:00Z,28.1384,-96.8285,0.0,27.1,1111122 
NERRS,ioos:station:NOAA.NERRS:marmbwq:1,2015-08-12T18:30:00Z,28.1384,-96.8285,0.0,27.2,1111122 
NERRS,ioos:station:NOAA.NERRS:marmbwq:1,2015-08-12T19:30:00Z,28.1384,-96.8285,0.0,27.3,1111122 
NERRS,ioos:station:NOAA.NERRS:marmbwq:1,2015-08-12T20:30:00Z,28.1384,-96.8285,0.0,27.3,1111122 
NERRS,ioos:station:NOAA.NERRS:marmbwq:1,2015-08-12T22:00:00Z,28.1384,-96.8285,0.0,27.4,1111122 
NERRS,ioos:station:NOAA.NERRS:marmbwq:1,2015-08-12T23:30:00Z,28.1384,-96.8285,0.0,27.5,1111122 
NERRS,ioos:station:NOAA.NERRS:marmbwq:1,2015-08-13T00:30:00Z,28.1384,-96.8285,0.0,27.4,1111122 
NERRS,ioos:station:NOAA.NERRS:marmbwq:1,2015-08-13T01:30:00Z,28.1384,-96.8285,0.0,27.4,1111122 
NERRS,ioos:station:NOAA.NERRS:marmbwq:1,2015-08-13T08:00:00Z,28.1384,-96.8285,0.0,27.5,1111122 
NERRS,ioos:station:NOAA.NERRS:marmbwq:1,2015-08-13T08:30:00Z,28.1384,-96.8285,0.0,27.6,1111122 
NERRS,ioos:station:NOAA.NERRS:marmbwq:1,2015-08-13T09:30:00Z,28.1384,-96.8285,0.0,27.7,1111122 
NERRS,ioos:station:NOAA.NERRS:marmbwq:1,2015-08-13T10:30:00Z,28.1384,-96.8285,0.0,27.7,1111122 
NERRS,ioos:station:NOAA.NERRS:marmbwq:1,2015-08-13T11:30:00Z,28.1384,-96.8285,0.0,27.7,1111122 
NERRS,ioos:station:NOAA.NERRS:marmbwq:1,2015-08-13T12:30:00Z,28.1384,-96.8285,0.0,27.7,1111122 
NERRS,ioos:station:NOAA.NERRS:marmbwq:1,2015-08-13T13:30:00Z,28.1384,-96.8285,0.0,27.8,1111122 
NERRS,ioos:station:NOAA.NERRS:marmbwq:1,2015-08-13T14:30:00Z,28.1384,-96.8285,0.0,28.0,1111122 
NERRS,ioos:station:NOAA.NERRS:marmbwq:1,2015-08-13T15:30:00Z,28.1384,-96.8285,0.0,28.2,1111122 
NERRS,ioos:station:NOAA.NERRS:marmbwq:1,2015-08-13T16:30:00Z,28.1384,-96.8285,0.0,28.4,1111122 
NERRS,ioos:station:NOAA.NERRS:marmbwq:1,2015-08-13T17:30:00Z,28.1384,-96.8285,0.0,28.7,1111122 
NERRS,ioos:station:NOAA.NERRS:marmbwq:1,2015-08-13T18:30:00Z,28.1384,-96.8285,0.0,28.8,1111122 
NERRS,ioos:station:NOAA.NERRS:marmbwq:1,2015-08-13T19:30:00Z,28.1384,-96.8285,0.0,28.3,1111122 
NERRS,ioos:station:NOAA.NERRS:marmbwq:1,2015-08-13T20:30:00Z,28.1384,-96.8285,0.0,28.6,1111122 
NERRS,ioos:station:NOAA.NERRS:marmbwq:1,2015-08-13T21:30:00Z,28.1384,-96.8285,0.0,28.7,1111122 
NERRS,ioos:station:NOAA.NERRS:marmbwq:1,2015-08-13T22:30:00Z,28.1384,-96.8285,0.0,28.7,1111122 
NERRS,ioos:station:NOAA.NERRS:marmbwq:1,2015-08-13T23:30:00Z,28.1384,-96.8285,0.0,28.7,1111122 
NERRS,ioos:station:NOAA.NERRS:marmbwq:1,2015-08-14T00:30:00Z,28.1384,-96.8285,0.0,28.7,1111122 
NERRS,ioos:station:NOAA.NERRS:marmbwq:1,2015-08-14T01:30:00Z,28.1384,-96.8285,0.0,28.7,1111122 
NERRS,ioos:station:NOAA.NERRS:marmbwq:1,2015-08-14T05:30:00Z,28.1384,-96.8285,0.0,28.6,1111122 
NERRS,ioos:station:NOAA.NERRS:marmbwq:1,2015-08-14T06:30:00Z,28.1384,-96.8285,0.0,28.6,1111122 
NERRS,ioos:station:NOAA.NERRS:marmbwq:1,2015-08-14T08:30:00Z,28.1384,-96.8285,0.0,28.6,1111122 
NERRS,ioos:station:NOAA.NERRS:marmbwq:1,2015-08-14T09:30:00Z,28.1384,-96.8285,0.0,28.6,1111122 
NERRS,ioos:station:NOAA.NERRS:marmbwq:1,2015-08-14T10:30:00Z,28.1384,-96.8285,0.0,28.5,1111122 
NERRS,ioos:station:NOAA.NERRS:marmbwq:1,2015-08-14T11:30:00Z,28.1384,-96.8285,0.0,28.7,1111122 
NERRS,ioos:station:NOAA.NERRS:marmbwq:1,2015-08-14T12:30:00Z,28.1384,-96.8285,0.0,28.8,1111122 
NERRS,ioos:station:NOAA.NERRS:marmbwq:1,2015-08-14T13:30:00Z,28.1384,-96.8285,0.0,28.9,1111122 
NERRS,ioos:station:NOAA.NERRS:marmbwq:1,2015-08-14T14:30:00Z,28.1384,-96.8285,0.0,28.9,1111122 
NERRS,ioos:station:NOAA.NERRS:marmbwq:1,2015-08-14T15:30:00Z,28.1384,-96.8285,0.0,28.9,1111122 
NERRS,ioos:station:NOAA.NERRS:marmbwq:1,2015-08-14T16:30:00Z,28.1384,-96.8285,0.0,29.0,1111122 
NERRS,ioos:station:NOAA.NERRS:marmbwq:1,2015-08-14T17:30:00Z,28.1384,-96.8285,0.0,29.0,1111122 
NERRS,ioos:station:NOAA.NERRS:marmbwq:1,2015-08-14T18:30:00Z,28.1384,-96.8285,0.0,28.8,1111122 
NERRS,ioos:station:NOAA.NERRS:marmbwq:1,2015-08-14T19:30:00Z,28.1384,-96.8285,0.0,28.6,1111122 
NERRS,ioos:station:NOAA.NERRS:marmbwq:1,2015-08-14T20:30:00Z,28.1384,-96.8285,0.0,28.9,1111122 
NERRS,ioos:station:NOAA.NERRS:marmbwq:1,2015-08-14T21:30:00Z,28.1384,-96.8285,0.0,29.1,1111122 
NERRS,ioos:station:NOAA.NERRS:marmbwq:1,2015-08-14T22:30:00Z,28.1384,-96.8285,0.0,29.0,1111122 
NERRS,ioos:station:NOAA.NERRS:marmbwq:1,2015-08-14T23:30:00Z,28.1384,-96.8285,0.0,29.2,1111122 
NERRS,ioos:station:NOAA.NERRS:marmbwq:1,2015-08-15T00:30:00Z,28.1384,-96.8285,0.0,29.1,1111122 
NERRS,ioos:station:NOAA.NERRS:marmbwq:1,2015-08-15T01:30:00Z,28.1384,-96.8285,0.0,29.1,1111122 
NERRS,ioos:station:NOAA.NERRS:marmbwq:1,2015-08-15T02:30:00Z,28.1384,-96.8285,0.0,29.0,1111122 
NERRS,ioos:station:NOAA.NERRS:marmbwq:1,2015-08-15T03:30:00Z,28.1384,-96.8285,0.0,28.9,1111122 